Location: Lussas
(44.6119°N, 4.4726°E)
Time: 06:39:50
(UTC+00:00)

Cosmos 2154 Rocket - Pass Details

Date: 26 November 2020
Orbit: 966 x 996 km, 82.9° (Epoch: 18 January)

Event Time Altitude Azimuth Distance (km) Brightness Sun altitude
Rises 05:30:55 0° 177° (S) 3,644 7.2 -14.3°
Reaches altitude 10° 05:33:25 10° 175° (S) 2,704 6.6 -13.9°
Maximum altitude 05:39:33 68° 94° (E) 1,046 4.4 -12.9°
Drops below altitude 10° 05:45:46 10° 13° (NNE) 2,741 6.3 -11.8°
Sets 05:48:19 0° 11° (N) 3,698 7.0 -11.4°
